Tracking 29967 objects as of 5-Dec-2024
HD Live streaming from Space Station
objects crossing your sky now

ORBCOMM FM 27

Track ORBCOMM FM 27 now!
10-day predictions
ORBCOMM FM 27 is classified as:


NORAD ID: 25481
Int'l Code: 1998-053G
Perigee: 774.0 km
Apogee: 776.5 km
Inclination: 45.0 °
Period: 100.2 minutes
Semi major axis: 7146 km
RCS: 0.6177 m2 (medium)
Launch date: September 23, 1998
Source: ORBCOMM (ORB)
Launch site: Pegasus launched from Eastern Range Air Space (ERAS)
Your satellite tracking list
Your tracking list is empty




NASA's NSSDC Master Catalog

Two Line Element Set (TLE):
1 25481U 98053G   24340.52906149  .00003576  00000-0  12397-2 0  9999
2 25481  45.0044 105.1899 0001796 218.3576 141.7144 14.37095456369809
Source of the keplerian elements: AFSPC